Starlink 3972

operational
NORAD ID: 52669 Int'l Des: 2022-053 Owner: SPXS Country: US Constellation: starlink
LEOCIRCULAR

关于 Starlink 3972

正在加载描述...

实时位置

正在加载3D地球...

即将过境

高度历史

Altitude vs Time

uPlot chart will show altitude changes over time

两行轨道根数

1 52669U 22053P 25257.31599381 .00000053 00000-0 21418-4 0 9998
2 52669 53.2174 225.8944 0001446 86.0190 274.0968 15.08840515184416
Epoch: Sep 14, 2025 • Age: 25 hours

当前状态

高度 543.3 km
速度 7.59 km/s
星下点 -12.41°S, 82.88°E
发射日期 May 18, 2022
运行时间 3.3 years
类型 internet

技术详情

分类 Payload
质量 297.00 kg
干质量 275.00 kg
总质量 297.00 kg
长度 0.20 m
直径 2.80 m
跨度 9.00 m
形状 Box + pan
制造商 SPXS
平台类型 Starlink
阶段状态 In Orbit
所有者/国家 SPXS/US

大型星座

Loading constellations...